VOZ985 YSSY-YARM

Flight info

Callsign VOZ985
Flight time 0h 42m
Altitude 21000
Route OLSEM H252 UPNEX/N0415F300 H140 MATLA/N0356F200 W347 ARM
Aircraft B737/M-SDE2E3FGHIRWXY/LB1

Departure

Time 2026-05-08 07:00
Airport Sydney Kingsford Smith International Airport (YSSY)

Arrival

Time 2026-05-08 07:42
Airport Armidale Airport (YARM)
Time Latitude Longitude Altitude Speed Heading
2026-05-08 06:35 -33.93522 151.17913 29 ft 0 kts 101°
2026-05-08 06:49 -33.93520 151.17900 29 ft 2 kts 101°
2026-05-08 06:49 -33.93517 151.17881 29 ft 2 kts 101°
2026-05-08 06:49 -33.93514 151.17862 29 ft 2 kts 101°
2026-05-08 06:50 -33.93508 151.17844 29 ft 2 kts 146°
2026-05-08 06:50 -33.93493 151.17842 29 ft 0 kts 191°
2026-05-08 06:53 -33.93526 151.17837 29 ft 12 kts 189°
2026-05-08 06:54 -33.93616 151.17818 29 ft 13 kts 189°
2026-05-08 06:54 -33.93692 151.17798 29 ft 4 kts 193°
2026-05-08 06:54 -33.93757 151.17790 29 ft 11 kts 152°
2026-05-08 06:54 -33.93803 151.17893 29 ft 16 kts 101°
2026-05-08 06:55 -33.93777 151.18044 29 ft 21 kts 75°
2026-05-08 06:55 -33.93740 151.18190 29 ft 20 kts 73°
2026-05-08 06:55 -33.93723 151.18275 29 ft 12 kts 73°
2026-05-08 06:55 -33.93686 151.18429 29 ft 26 kts 74°
2026-05-08 06:56 -33.93637 151.18633 29 ft 21 kts 73°
2026-05-08 06:56 -33.93615 151.18723 29 ft 0 kts 73°
2026-05-08 06:56 -33.93612 151.18762 29 ft 12 kts 96°
2026-05-08 06:56 -33.93667 151.18811 28 ft 11 kts 162°
2026-05-08 06:57 -33.93697 151.18821 27 ft 0 kts 163°
2026-05-08 06:57 -33.93698 151.18822 27 ft 2 kts 164°
2026-05-08 06:58 -33.93734 151.18833 28 ft 10 kts 165°
2026-05-08 06:58 -33.93792 151.18824 25 ft 6 kts 253°
2026-05-08 06:58 -33.93793 151.18818 25 ft 0 kts 253°
2026-05-08 06:59 -33.93796 151.18806 27 ft 10 kts 253°
2026-05-08 06:59 -33.93922 151.18275 28 ft 120 kts 254°
2026-05-08 07:00 -33.94213 151.17023 566 ft 169 kts 255°
2026-05-08 07:00 -33.94522 151.15545 1623 ft 200 kts 263°
2026-05-08 07:00 -33.94070 151.14038 2902 ft 205 kts 304°
2026-05-08 07:00 -33.92959 151.12784 3679 ft 231 kts 311°
2026-05-08 07:01 -33.91692 151.11505 4477 ft 243 kts 313°
2026-05-08 07:01 -33.90214 151.10462 5209 ft 258 kts 338°
2026-05-08 07:01 -33.88388 151.10293 6215 ft 271 kts
2026-05-08 07:01 -33.86562 151.11116 7016 ft 295 kts 35°
2026-05-08 07:02 -33.85107 151.12907 8000 ft 305 kts 57°
2026-05-08 07:02 -33.84022 151.15121 9118 ft 310 kts 65°
2026-05-08 07:02 -33.83053 151.17463 9867 ft 321 kts 67°
2026-05-08 07:02 -33.82083 151.19891 10583 ft 323 kts 67°
2026-05-08 07:03 -33.81094 151.22344 11318 ft 330 kts 66°
2026-05-08 07:03 -33.80069 151.24841 12046 ft 336 kts 66°
2026-05-08 07:03 -33.79005 151.27391 12767 ft 345 kts 66°
2026-05-08 07:03 -33.77892 151.30027 13399 ft 362 kts 66°
2026-05-08 07:04 -33.76722 151.32781 14055 ft 378 kts 65°
2026-05-08 07:04 -33.75497 151.35644 14704 ft 393 kts 65°
2026-05-08 07:04 -33.74223 151.38615 15344 ft 405 kts 65°
2026-05-08 07:04 -33.72919 151.41645 15974 ft 412 kts 65°
2026-05-08 07:05 -33.71598 151.44708 16587 ft 415 kts 65°
2026-05-08 07:05 -33.70265 151.47801 17208 ft 418 kts 65°
2026-05-08 07:05 -33.68921 151.50919 17835 ft 422 kts 65°
2026-05-08 07:05 -33.67566 151.54058 18457 ft 425 kts 65°
2026-05-08 07:06 -33.66132 151.57183 19059 ft 431 kts 56°
2026-05-08 07:06 -33.64048 151.59843 19699 ft 436 kts 36°
2026-05-08 07:06 -33.61534 151.61613 20065 ft 414 kts 16°
2026-05-08 07:06 -33.58814 151.62517 20105 ft 402 kts
2026-05-08 07:07 -33.56086 151.63255 20104 ft 402 kts
2026-05-08 07:07 -33.53355 151.64007 20107 ft 403 kts
2026-05-08 07:07 -33.50630 151.64804 20098 ft 403 kts
2026-05-08 07:07 -33.47906 151.65627 20093 ft 403 kts
2026-05-08 07:08 -33.45172 151.66306 20091 ft 398 kts 360°
2026-05-08 07:08 -33.42440 151.66452 20100 ft 389 kts 349°
2026-05-08 07:08 -33.39789 151.66074 20094 ft 382 kts 342°
2026-05-08 07:08 -33.37171 151.65544 20092 ft 381 kts 342°
2026-05-08 07:09 -33.34564 151.64993 20094 ft 381 kts 341°
2026-05-08 07:09 -33.31952 151.64442 20097 ft 381 kts 342°
2026-05-08 07:09 -33.29334 151.63896 20095 ft 381 kts 342°
2026-05-08 07:09 -33.26723 151.63361 20088 ft 381 kts 342°
2026-05-08 07:10 -33.24109 151.62832 20086 ft 381 kts 342°
2026-05-08 07:10 -33.21489 151.62306 20085 ft 381 kts 342°
2026-05-08 07:10 -33.18876 151.61784 20070 ft 381 kts 342°
2026-05-08 07:10 -33.16265 151.61264 20084 ft 380 kts 342°
2026-05-08 07:11 -33.13649 151.60745 20079 ft 380 kts 342°
2026-05-08 07:11 -33.11921 151.60402 20081 ft 380 kts 343°
2026-05-08 07:11 -33.09284 151.59878 20083 ft 379 kts 342°
2026-05-08 07:11 -33.06712 151.59367 20080 ft 379 kts 343°
2026-05-08 07:12 -33.04115 151.58851 20089 ft 378 kts 343°
2026-05-08 07:12 -33.01519 151.58335 20082 ft 378 kts 343°
2026-05-08 07:12 -32.98930 151.57821 20087 ft 377 kts 343°
2026-05-08 07:12 -32.96347 151.57309 20082 ft 376 kts 343°
2026-05-08 07:13 -32.93754 151.56796 20085 ft 376 kts 343°
2026-05-08 07:13 -32.91181 151.56287 20082 ft 376 kts 343°
2026-05-08 07:13 -32.88600 151.55777 20085 ft 375 kts 343°
2026-05-08 07:13 -32.86026 151.55268 20086 ft 375 kts 343°
2026-05-08 07:14 -32.83455 151.54759 20084 ft 375 kts 343°
2026-05-08 07:14 -32.80885 151.54251 20081 ft 375 kts 343°
2026-05-08 07:14 -32.78313 151.53743 20087 ft 374 kts 343°
2026-05-08 07:14 -32.75747 151.53241 20078 ft 374 kts 344°
2026-05-08 07:15 -32.73146 151.52878 20076 ft 377 kts 348°
2026-05-08 07:15 -32.70532 151.52636 20082 ft 377 kts 349°
2026-05-08 07:15 -32.67911 151.52438 20081 ft 377 kts 349°
2026-05-08 07:15 -32.65291 151.52247 20092 ft 377 kts 349°
2026-05-08 07:16 -32.62670 151.52052 20082 ft 377 kts 349°
2026-05-08 07:16 -32.60053 151.51848 20080 ft 376 kts 349°
2026-05-08 07:16 -32.57448 151.51639 20091 ft 375 kts 349°
2026-05-08 07:16 -32.54845 151.51424 20080 ft 375 kts 349°
2026-05-08 07:17 -32.52241 151.51207 20076 ft 375 kts 349°
2026-05-08 07:17 -32.49641 151.50988 20087 ft 374 kts 349°
2026-05-08 07:17 -32.47047 151.50768 20087 ft 374 kts 349°
2026-05-08 07:17 -32.44453 151.50549 20082 ft 374 kts 349°
2026-05-08 07:18 -32.41855 151.50329 20088 ft 373 kts 349°
2026-05-08 07:18 -32.39259 151.50109 20085 ft 374 kts 349°
2026-05-08 07:18 -32.36665 151.49889 20102 ft 373 kts 349°
2026-05-08 07:18 -32.34073 151.49669 20110 ft 374 kts 349°
2026-05-08 07:19 -32.31480 151.49451 20112 ft 373 kts 349°
2026-05-08 07:19 -32.28889 151.49232 20109 ft 373 kts 349°
2026-05-08 07:19 -32.26303 151.49014 20122 ft 373 kts 349°
2026-05-08 07:19 -32.23717 151.48796 20117 ft 373 kts 349°
2026-05-08 07:20 -32.21129 151.48577 20132 ft 373 kts 349°
2026-05-08 07:20 -32.18535 151.48358 20131 ft 373 kts 349°
2026-05-08 07:20 -32.15950 151.48140 20117 ft 373 kts 349°
2026-05-08 07:20 -32.13360 151.47921 20133 ft 373 kts 349°
2026-05-08 07:21 -32.10808 151.47707 20114 ft 373 kts 349°
2026-05-08 07:21 -32.08217 151.47489 20115 ft 373 kts 349°
2026-05-08 07:21 -32.05637 151.47272 20137 ft 372 kts 349°
2026-05-08 07:21 -32.03050 151.47055 20131 ft 372 kts 349°
2026-05-08 07:22 -32.00467 151.46838 20137 ft 372 kts 349°
2026-05-08 07:22 -31.97887 151.46621 20122 ft 372 kts 349°
2026-05-08 07:22 -31.95306 151.46405 20135 ft 371 kts 349°
2026-05-08 07:22 -31.92732 151.46190 20136 ft 370 kts 349°
2026-05-08 07:23 -31.90165 151.45975 20139 ft 370 kts 349°
2026-05-08 07:23 -31.87604 151.45760 20137 ft 369 kts 349°
2026-05-08 07:23 -31.85042 151.45546 20138 ft 369 kts 349°
2026-05-08 07:23 -31.82482 151.45331 20148 ft 369 kts 349°
2026-05-08 07:24 -31.79916 151.45115 20143 ft 369 kts 349°
2026-05-08 07:24 -31.77358 151.44902 20138 ft 369 kts 349°
2026-05-08 07:24 -31.74762 151.44686 20141 ft 369 kts 349°
2026-05-08 07:24 -31.72239 151.44477 20136 ft 368 kts 349°
2026-05-08 07:25 -31.69686 151.44264 20152 ft 368 kts 349°
2026-05-08 07:25 -31.67096 151.44048 20150 ft 369 kts 349°
2026-05-08 07:25 -31.62008 151.43624 20156 ft 369 kts 349°
2026-05-08 07:26 -31.59441 151.43410 20152 ft 369 kts 349°
2026-05-08 07:26 -31.56882 151.43197 20155 ft 369 kts 349°
2026-05-08 07:26 -31.54314 151.42984 20155 ft 370 kts 349°
2026-05-08 07:26 -31.51742 151.42770 20162 ft 370 kts 349°
2026-05-08 07:27 -31.49174 151.42558 20151 ft 370 kts 349°
2026-05-08 07:27 -31.46610 151.42346 20155 ft 369 kts 349°
2026-05-08 07:27 -31.44053 151.42134 20160 ft 368 kts 349°
2026-05-08 07:27 -31.41502 151.41923 20161 ft 367 kts 349°
2026-05-08 07:28 -31.38955 151.41713 20166 ft 367 kts 349°
2026-05-08 07:28 -31.36413 151.41508 20167 ft 366 kts 349°
2026-05-08 07:28 -31.33873 151.41297 19996 ft 367 kts 349°
2026-05-08 07:28 -31.31319 151.41082 19615 ft 368 kts 349°
2026-05-08 07:29 -31.28763 151.40870 19143 ft 366 kts 350°
2026-05-08 07:29 -31.26232 151.40662 18628 ft 363 kts 350°
2026-05-08 07:29 -31.23719 151.40455 18135 ft 360 kts 350°
2026-05-08 07:29 -31.21223 151.40249 17618 ft 358 kts 350°
2026-05-08 07:30 -31.18743 151.40044 17105 ft 356 kts 350°
2026-05-08 07:30 -31.16281 151.39841 16594 ft 354 kts 350°
2026-05-08 07:30 -31.13836 151.39639 16093 ft 351 kts 350°
2026-05-08 07:30 -31.11403 151.39439 15580 ft 349 kts 351°
2026-05-08 07:31 -31.08988 151.39240 15062 ft 347 kts 351°
2026-05-08 07:31 -31.06578 151.39040 14567 ft 346 kts 351°
2026-05-08 07:31 -31.04187 151.38845 14044 ft 344 kts 351°
2026-05-08 07:31 -31.01806 151.38649 13531 ft 342 kts 351°
2026-05-08 07:32 -30.99441 151.38456 13018 ft 340 kts 351°
2026-05-08 07:32 -30.97088 151.38263 12511 ft 338 kts 351°
2026-05-08 07:32 -30.94740 151.38070 11977 ft 338 kts 351°
2026-05-08 07:32 -30.92409 151.37879 11472 ft 336 kts 351°
2026-05-08 07:33 -30.90082 151.37687 10951 ft 335 kts 351°
2026-05-08 07:33 -30.87763 151.37496 10453 ft 332 kts 352°
2026-05-08 07:33 -30.85503 151.37311 10226 ft 316 kts 352°
2026-05-08 07:33 -30.83595 151.37159 10071 ft 297 kts 352°
2026-05-08 07:34 -30.81548 151.36991 9550 ft 291 kts 352°
2026-05-08 07:34 -30.79562 151.36829 9161 ft 282 kts 351°
2026-05-08 07:34 -30.77684 151.36676 9036 ft 258 kts 351°
2026-05-08 07:34 -30.75966 151.36538 8880 ft 237 kts 351°
2026-05-08 07:35 -30.74388 151.36410 8737 ft 218 kts 350°
2026-05-08 07:35 -30.72933 151.36291 8611 ft 201 kts 350°
2026-05-08 07:35 -30.71589 151.36181 8448 ft 186 kts 350°
2026-05-08 07:35 -30.70304 151.36075 8102 ft 185 kts 349°
2026-05-08 07:36 -30.69030 151.35969 7761 ft 182 kts 350°
2026-05-08 07:36 -30.67798 151.35888 7664 ft 176 kts 357°
2026-05-08 07:36 -30.66664 151.36474 7494 ft 190 kts 48°
2026-05-08 07:36 -30.65821 151.37685 7333 ft 197 kts 47°
2026-05-08 07:37 -30.64989 151.38954 7086 ft 196 kts 58°
2026-05-08 07:37 -30.64296 151.40298 6902 ft 190 kts 59°
2026-05-08 07:37 -30.63619 151.41588 6791 ft 185 kts 58°
2026-05-08 07:37 -30.62938 151.42860 6726 ft 186 kts 58°
2026-05-08 07:38 -30.62249 151.44154 6616 ft 192 kts 58°
2026-05-08 07:38 -30.61536 151.45484 6439 ft 194 kts 58°
2026-05-08 07:38 -30.60832 151.46798 6207 ft 189 kts 58°
2026-05-08 07:38 -30.60150 151.48075 5989 ft 184 kts 57°
2026-05-08 07:39 -30.59480 151.49328 5830 ft 178 kts 58°
2026-05-08 07:39 -30.58859 151.50491 5647 ft 160 kts 58°
2026-05-08 07:39 -30.58305 151.51527 5406 ft 143 kts 59°
2026-05-08 07:39 -30.57787 151.52494 5236 ft 140 kts 59°
2026-05-08 07:40 -30.57275 151.53453 5057 ft 140 kts 59°
2026-05-08 07:40 -30.56771 151.54398 4873 ft 136 kts 59°
2026-05-08 07:40 -30.56282 151.55315 4703 ft 132 kts 59°
2026-05-08 07:40 -30.55805 151.56207 4533 ft 131 kts 59°
2026-05-08 07:41 -30.55324 151.57109 4355 ft 131 kts 59°
2026-05-08 07:41 -30.54844 151.58008 4182 ft 131 kts 59°
2026-05-08 07:41 -30.54367 151.58900 4009 ft 130 kts 59°
2026-05-08 07:41 -30.53892 151.59793 3797 ft 130 kts 59°
2026-05-08 07:42 -30.53422 151.60678 3602 ft 125 kts 59°
2026-05-08 07:42 -30.53000 151.61484 3547 ft 107 kts 56°
2026-05-08 07:42 -30.52724 151.61987 3557 ft 45 kts 57°
2026-05-08 07:42 -30.52607 151.62206 3556 ft 26 kts 58°
2026-05-08 07:43 -30.52526 151.62360 3556 ft 15 kts 58°
2026-05-08 07:43 -30.52480 151.62429 3557 ft 2 kts 66°
2026-05-08 07:43 -30.52485 151.62432 3557 ft 1 kts 148°
2026-05-08 07:43 -30.52494 151.62419 3557 ft 6 kts 239°
2026-05-08 07:44 -30.52532 151.62348 3558 ft 15 kts 238°
2026-05-08 07:44 -30.52602 151.62211 3556 ft 23 kts 237°
2026-05-08 07:44 -30.52702 151.62028 3557 ft 29 kts 237°
2026-05-08 07:44 -30.52821 151.61806 3550 ft 36 kts 238°
2026-05-08 07:45 -30.52938 151.61586 3547 ft 23 kts 236°
2026-05-08 07:45 -30.53016 151.61486 3544 ft 14 kts 174°
2026-05-08 07:45 -30.53083 151.61515 3541 ft 9 kts 202°
2026-05-08 07:45 -30.53140 151.61490 3543 ft 5 kts 180°
2026-05-08 07:46 -30.53146 151.61490 3547 ft 0 kts 179°